STARLINK-32124, 60298

Orbit data source: Space-Track

STARLINK-32124, 60298 is a payload satellite owned by SpaceX/Seattle (US) in LEO that was launched on Sun, 28 Jul 2024 UTC via an FALCON 9 launch vehicle from the Air Force Eastern Test Range (AFETR). Payloads include a variety of satellites, spacecraft, and rockets equipped with specific instruments for various scientific and technological missions. These include communications satellites like Starlink; space stations such as the ISS; scientific satellites like the Hubble; Earth observation satellites from companies like Planet Labs, Umbra, and HawkEye 360; GPS; miniature CubeSats for education and research; and military/defense satellites.

Loading next visibility...
STARLINK-32124 details
Identifier
60298, 2024-132W
Orbit
LEO
Last TLE update12 hours ago
Origin
Flag of USSpaceX/Seattle (US)
ManufacturerSpaceX/Seattle
MissionOperational spacecraft
Bus & MotorSTARLINK V2M, Unknown motor
Mass730 kg wet, ~700 kg dry
Launch date (UTC)
2024-07-28 (6 months ago)
Launch vehicle
FALCON 9
Launch site
Air Force Eastern Test Range (AFETR)
Object type
Payload
Rocket body
Debris
Shape & HBRUnknown
Radar Cross SectionLarge (>1 m²)

Expand to show TLE details & history

TLE from 12 hours ago
0 STARLINK-32124
1 60298U 24132W   25014.80232846 -.00001519  00000-0 -39168-4 0  9991
2 60298  53.1599 198.3480 0000941  92.9265 267.1843 15.30195133 27426
Epoch: 2025-01-14T19:15Z
Definitive object data (Epoch: 2025-01-14T19:15:21.178Z)
Latitude-0.00008°
Longitude155.0059°
Altitude476.161 km
Speed7.629 km/s
True Right ascension13h 13m 23s
True Declination0° 00' 00"
Sunlit
Object was in daylight at TLE epoch
Visualization TLE readout
Latitude-47.37165°
Longitude98.5934°
Altitude492.039 km
Speed7.618 km/s
Apparent Right ascension15h 21m 55s
Apparent Declination-79° 50' 17"
Sunlit
Object is in daylight
Visualization observer readout
Local Sidereal Time08:09:56
Azimuth166.88° S
Elevation-42.33°
Doppler factor1
Orbital elements
Apogee altitude476.131 km
Perigee altitude474.841 km
Semi-major axis6,853.623 km
Eccentricity0.0000941
Inclination53.1599°
RAAN198.348°
Arg. of periapsis92.9265°
True anomaly267.17353°
Mean anomaly267.1843°
Eccentric anomaly267.17892°
Mean motion3.82528 °/min
BSTAR-0.000039168
Orbital period94.11 mins
Loading maneuver chart data...
Loading historical data...
Loading historical data...
Loading historical data...
Loading historical data...
Loading historical data...
Loading historical data...
Loading historical data...

STARLINK-32124 Visibility forecast

Observer location: undefined°, undefined

Span
Click to sort rows by Start time (UTC) header in descending order
Start Az.
Max El. time (UTC)
Max El. Az.
Max El.
End time (UTC)
End Az.
6 mins2025-01-15 14:13:23.487Z201.95° SSW2025-01-15 14:16:23.487Z141.038° SSE32.249°2025-01-15 14:19:23.487Z67.567° E
5 mins2025-01-15 15:52:23.487Z280.508° WNW2025-01-15 15:54:23.487Z326.338° NNW25.28°2025-01-15 15:57:23.487Z29.092° NE
5 mins2025-01-15 20:49:23.487Z335.5° NNW2025-01-15 20:51:23.487Z29.948° NE30.955°2025-01-15 20:54:23.487Z98.484° ESE
4 mins2025-01-15 22:27:23.487Z273.451° WNW2025-01-15 22:29:23.487Z224.851° SW24.223°2025-01-15 22:31:23.487Z180.618° SSW
|